This demonstration page uses our WeatherBlox Daily Observations layout. Learn more.

Left ArrowRight Arrow

Hourly Observations for August 7, 2022

Temp ( °F °C ) Dew Point ( °F °C ) Humidity (%) Winds ( mph kmh ) Pressure ( in mb ) Visibility ( mi km ) Precip ( " mm )
12:52 am 00:52 Clear 79 26.1 70 21.1 74 74 SSE 9 15 30.05 1018 10 16 0.00 0.00
1:52 am 01:52 Clear 78 25.6 70 21.1 76 76 SSE 9 15 30.05 1018 10 16 0.00 0.00
2:52 am 02:52 Clear 77 25 71 21.7 82 82 SSE 10 17 30.04 1017 10 16 0.00 0.00
3:52 am 03:52 Clear 76 24.4 70 21.1 82 82 S 10 17 30.04 1017 10 16 0.00 0.00
4:52 am 04:52 Clear 76 24.4 70 21.1 82 82 S 12 19 30.04 1017 10 16 0.00 0.00
5:52 am 05:52 Clear 75 23.9 70 21.1 84 84 SSE 10 17 30.04 1017 10 16 0.00 0.00
6:52 am 06:52 Sunny 75 23.9 70 21.1 84 84 S 10 17 30.06 1018 10 16 0.00 0.00
7:52 am 07:52 Sunny 77 25 71 21.7 82 82 S 10 17 30.07 1018 10 16 0.00 0.00
8:52 am 08:52 Sunny 80 26.7 71 21.7 74 74 SSW 13 20 30.08 1019 10 16 0.00 0.00
9:52 am 09:52 Sunny 84 28.9 72 22.2 67 67 SSW 13 20 30.08 1019 10 16 0.00 0.00
10:52 am 10:52 Sunny 86 30 70 21.1 59 59 SW 14 22 30.08 1019 10 16 0.00 0.00
11:52 am 11:52 Sunny 87 30.6 70 21.1 57 57 SW 13 20 30.08 1019 10 16 0.00 0.00
12:52 pm 12:52 Sunny 89 31.7 69 20.6 52 52 SSW 12 19 30.07 1018 10 16 0.00 0.00
1:52 pm 13:52 Sunny 91 32.8 71 21.7 52 52 SW 7 11 30.05 1018 10 16 0.00 0.00
2:52 pm 14:52 Mostly Sunny 91 32.8 70 21.1 50 50 SSW 10 17 30.03 1017 10 16 0.00 0.00
3:52 pm 15:52 Partly Cloudy 92 33.3 69 20.6 47 47 SSW 15 24 30.01 1016 10 16 0.00 0.00
4:52 pm 16:52 Mostly Sunny 91 32.8 69 20.6 49 49 SSW 9 15 30.00 1016 10 16 0.00 0.00
5:52 pm 17:52 Sunny 90 32.2 70 21.1 52 52 SW 10 17 30.00 1016 10 16 0.00 0.00
6:52 pm 18:52 Sunny 88 31.1 70 21.1 55 55 SSW 9 15 29.99 1016 10 16 0.00 0.00
7:52 pm 19:52 Sunny 86 30 70 21.1 59 59 S 8 13 30.00 1016 10 16 0.00 0.00
8:52 pm 20:52 Clear 82 27.8 71 21.7 69 69 SSW 7 11 30.00 1016 10 16 0.00 0.00
9:52 pm 21:52 Clear 82 27.8 71 21.7 69 69 S 8 13 30.01 1016 10 16 0.00 0.00
10:52 pm 22:52 Clear 81 27.2 71 21.7 72 72 S 7 11 30.03 1017 10 16 0.00 0.00
11:52 pm 23:52 Clear 81 27.2 71 21.7 72 72 S 9 15 30.03 1017 10 16 0.00 0.00

Powered by AerisWeather